Location: Eferding
(48.3167°N, 14.0167°E)
Time: 21:02:27
(UTC+00:00)

Cosmos 2227 Rocket - Pass Details

Date: 12 November 2019
Orbit: 838 x 846 km, 71.0° (Epoch: 05 December)

Event Time Altitude Azimuth Distance (km) Brightness Sun altitude
Rises 17:38:56 0° 330° (NNW) 3,417 5.7 -21.5°
Reaches altitude 10° 17:41:24 10° 327° (NNW) 2,477 5.0 -21.9°
Maximum altitude 17:47:00 63° 248° (WSW) 941 2.6 -22.9°
Drops below altitude 10° 17:52:34 10° 168° (SSE) 2,456 4.5 -23.8°
Enters shadow 17:54:43 - 165° (SSE) 3,269 5.1 -24.2°
